859  
ASUS45 KCYS 140810  
RWRWY  
 
WYOMING REGIONAL WEATHER ROUNDUP  
NATIONAL WEATHER SERVICE CHEYENNE WY  
200 AM MDT WED APR 14 2021  
 
NOTE: "FAIR" INDICATES FEW OR NO CLOUDS BELOW 12,000 FEET  
WITH NO SIGNIFICANT WEATHER AND/OR S TO VISIBILITY
.  
 
WYZ001-140900-   
..YELLOWSTONE NATIONAL PARK
 
 
 
CITY SKY/WX TMP DP RH WIND PRES REMARKS
 
LK YELLOWSTONE NOT AVBL  
W YELLOWSTONE NOT AVBL  
 

 
WYZ002>013-054>058-071-098>099-140900-   
..NORTHERN WYOMING
 
 
 
CITY SKY/WX TMP DP RH WIND PRES REMARKS
 
JACKSON MOCLDY 26 12 55 N23G31 30.01F WCI 11  
CODY FLURRIES 24 16 71 NW7 30.29R WCI 16  
GREYBULL PTCLDY 27 13 55 NW9 30.28R WCI 18  
WORLAND PTCLDY 26 16 65 NW12 30.27F WCI 16  
SHERIDAN PTCLDY 23 16 74 NW6 30.31R WCI 16  
BUFFALO CLOUDY 23 17 78 N12 30.25F WCI 12  
GILLETTE CLEAR 17 13 84 W10 30.27F WCI 5  
HULETT CLOUDY 27 18 69 NW7 30.26F WCI 19  
NEWCASTLE MOCLDY 25 16 68 NW8 30.26F WCI 16  
 

 
WYZ014>020-022>026-101>103-140900-   
..CENTRAL WYOMING
 
 
 
CITY SKY/WX TMP DP RH WIND PRES REMARKS
 
BIG PINEY CLOUDY 26 11 52 NW3 30.00F  
PINEDALE CLOUDY 27 14 59 W5 29.99F WCI 21  
DUBOIS CLOUDY 19 10 68 E14G20 30.10F WCI 6  
LANDER CLOUDY 27 15 61 N6 30.19S WCI 20  
RIVERTON CLOUDY 27 13 55 E13 30.19S WCI 16  
CASPER CLOUDY 24 14 65 NE15 30.23R WCI 11  
DOUGLAS CLOUDY 25 13 60 NE5 30.26S WCI 19  
 

 
WYZ021-027>030-104>119-140900-   
..SOUTHERN WYOMING
 
 
 
CITY SKY/WX TMP DP RH WIND PRES REMARKS
 
EVANSTON CLOUDY 23 18 81 E35G49 29.85F WCI 4  
KEMMERER LGT SNOW 23 14 68 E26G37 29.96F WCI 6  
FORT BRIDGER FLURRIES 24 23 93 E18G29 29.98F WCI 10  
ROCK SPRINGS CLOUDY 24 12 60 NE31G40 30.02R WCI 7  
DIXON MIX PCPN 32 29 89 E18 29.96S WCI 20  
RAWLINS SNOW 22 18 85 NE23G36 30.03F VSB 1/2 WCI 6  
SARATOGA LGT SNOW 27 27 100 CALM 30.02F  
LARAMIE LGT SNOW 20 14 77 E14 30.10S WCI 7  
CHEYENNE LGT SNOW 22 19 89 NE14G21 30.19S FOG WCI 9  
TORRINGTON CLOUDY 30 16 56 SE5 30.27R WCI 25  
PINE BLUFFS CLOUDY 28 14 54 NE12 30.24R WCI 18  
 

 
 
 
CLICK HERE TO GO TO PREVIOUS BULLETINS.

The Nexlab WY Page Main Text Page